Location: St. Louis
(38.6270°N, 90.1994°W)
Time: 09:00:04
(UTC-06:00)

Vanguard 2 Rocket - Pass Details

Date: 04 December 2021
Orbit: 553 x 3325 km, 32.9° (Epoch: 23 January)

Event Time Altitude Azimuth Distance (km) Brightness Sun altitude
Rises 01:35:17 0° 270° (W) 5,907 - -62.4°
Reaches altitude 10° 01:40:50 10° 253° (WSW) 5,365 - -61.4°
Maximum altitude 01:50:17 18° 218° (SW) 5,286 - -59.8°
Drops below altitude 10° 02:01:14 10° 184° (S) 6,257 - -57.8°
Exits shadow 02:03:06 - 180° (S) 6,488 11.1 -57.4°
Sets 02:08:55 0° 168° (SSE) 7,267 11.5 -56.4°
